DW2802 Ogijares ES current weather conditions

sailwx.info

Wind from 321 at 4 knots gusting 8

Air temperature 30.6° C
Dewpoint 7.7° C

Last reported at 2014-Jul-25 12:46 UTC.
Time now 2014-Jul-25 13:50 UTC

Location: N 37°07' W 003°36'.
View on Google Maps.

See reports from other nearby stations

  
Tides and Currents Weather Stations Pressure Air Temp Water Temp Dewpoint Dewpoint Depression Visibility Wind Speed Wind Dir Waves Ship Positions
date/time (UTC)wind fromknots sea level pressurealtimeterstation pressurevisibilityair tempwater tempwave heightnotes
2014-Jul-25 12:46 321 4 gusting 8 30.6
2014-Jul-25 12:31 349 5 gusting 9 30.6
2014-Jul-25 12:16 025 2 gusting 10 30.0
2014-Jul-25 12:01 032 3 gusting 8 30.0
2014-Jul-25 11:46 330 30.0
2014-Jul-25 11:31 360 2 gusting 7 29.4
2014-Jul-25 11:16 321 2 gusting 7 28.3
2014-Jul-25 11:00 333 1 gusting 7 27.8
2014-Jul-25 10:45 302 1 gusting 7 27.2
2014-Jul-25 10:30 311 1 gusting 5 27.8
2014-Jul-25 10:15 013 27.2
2014-Jul-25 10:00 360 26.7
2014-Jul-25 09:45 307 25.6
2014-Jul-25 09:30 348 0 gusting 6 25.0
2014-Jul-25 09:15 360 2 gusting 6 24.4
2014-Jul-25 09:00 328 1 gusting 3 23.9
2014-Jul-25 08:45 348 23.9
2014-Jul-25 08:30 348 23.3
2014-Jul-25 08:15 342 22.8
2014-Jul-25 08:00 306 22.8
2014-Jul-25 07:45 155 22.8
2014-Jul-25 07:30 147 22.2
2014-Jul-25 07:14 148 21.7
2014-Jul-25 06:59 148 21.1
2014-Jul-25 06:44 148 20.6
2014-Jul-25 06:29 148 20.0
2014-Jul-25 06:14 148 19.4
2014-Jul-25 05:59 148 18.9
2014-Jul-25 05:44 148 18.3
2014-Jul-25 05:29 148 18.3
2014-Jul-25 05:14 148 18.3
2014-Jul-25 04:59 148 18.9
2014-Jul-25 04:44 148 19.4
2014-Jul-25 04:29 148 19.4
2014-Jul-25 04:14 148 20.0
2014-Jul-25 03:59 148 1 gusting 5 19.4
2014-Jul-25 03:44 147 2 gusting 6 18.9
2014-Jul-25 03:29 160 18.9
2014-Jul-25 03:14 161 0 gusting 4 18.9
2014-Jul-25 02:59 165 19.4
2014-Jul-25 02:44 165 19.4
2014-Jul-25 02:29 165 20.0
2014-Jul-25 02:14 167 20.0
2014-Jul-25 01:59 167 20.6
2014-Jul-25 01:44 162 20.6
2014-Jul-25 01:29 162 20.6
2014-Jul-25 01:14 162 20.6
2014-Jul-25 00:58 163 20.6
2014-Jul-25 00:43 163 20.6
2014-Jul-25 00:28 163 21.1
2014-Jul-25 00:13 163 21.1
2014-Jul-24 23:58 163 21.1
2014-Jul-24 23:43 163 21.7
2014-Jul-24 23:28 163 22.2
2014-Jul-24 23:13 163 22.2
2014-Jul-24 22:58 163 22.2
2014-Jul-24 22:43 163 22.2
2014-Jul-24 22:28 163 22.8
2014-Jul-24 22:13 163 0 gusting 4 23.3
2014-Jul-24 21:58 163 2 gusting 4 24.4
2014-Jul-24 21:43 164 25.0
2014-Jul-24 21:28 162 25.0
2014-Jul-24 21:13 162 25.6
2014-Jul-24 20:58 157 1 gusting 6 26.1
2014-Jul-24 20:43 224 26.7
2014-Jul-24 20:28 239 4 gusting 7 26.7
2014-Jul-24 20:13 207 0 gusting 6 27.2
2014-Jul-24 19:58 247 2 gusting 6 27.8
2014-Jul-24 19:43 271 1 gusting 9 28.3
2014-Jul-24 19:28 244 0 gusting 6 28.3
2014-Jul-24 19:13 271 2 gusting 8 28.9
2014-Jul-24 18:58 263 4 gusting 12 28.9
2014-Jul-24 18:43 253 6 gusting 11 29.4
2014-Jul-24 18:28 263 6 gusting 11 30.0
2014-Jul-24 18:13 275 7 gusting 12 30.6
2014-Jul-24 17:58 290 7 gusting 13 31.1
2014-Jul-24 17:43 261 6 gusting 10 31.7
2014-Jul-24 17:28 260 6 gusting 10 31.7
2014-Jul-24 17:13 310 7 gusting 13 31.7
2014-Jul-24 16:58 294 4 gusting 11 31.7
2014-Jul-24 16:43 275 7 gusting 13 31.7
2014-Jul-24 16:28 276 7 gusting 12 32.2
2014-Jul-24 16:13 275 6 gusting 13 32.2
2014-Jul-24 15:58 275 6 gusting 15 32.2
2014-Jul-24 15:43 316 3 gusting 13 32.2
2014-Jul-24 15:28 300 7 gusting 16 32.2
2014-Jul-24 15:13 275 6 gusting 12 32.2
2014-Jul-24 14:58 270 8 gusting 14 32.8
2014-Jul-24 14:43 333 6 gusting 16 32.8
2014-Jul-24 14:28 343 7 gusting 15 32.2
2014-Jul-24 14:13 285 6 gusting 13 32.2
2014-Jul-24 13:58 009 6 gusting 14 32.2
2014-Jul-24 13:43 329 7 gusting 15 32.2
2014-Jul-24 13:28 035 3 gusting 7 32.2
2014-Jul-24 13:13 263 1 gusting 9 32.2
2014-Jul-24 12:58 026 1 gusting 6 31.7
2014-Jul-24 12:42 342 2 gusting 11 31.1
2014-Jul-24 12:27 032 5 gusting 9 30.6
2014-Jul-24 12:12 304 0 gusting 8 30.0
2014-Jul-24 11:57 294 4 gusting 8 29.4
2014-Jul-24 11:42 296 1 gusting 7 29.4
2014-Jul-24 11:12 316 0 gusting 7 29.4
2014-Jul-24 10:57 337 28.3
2014-Jul-24 10:42 340 28.3
2014-Jul-24 10:27 344 1 gusting 6 27.8
2014-Jul-24 10:12 288 2 gusting 6 27.2
2014-Jul-24 09:57 315 3 gusting 6 26.7
2014-Jul-24 09:42 308 26.1
2014-Jul-24 09:27 350 26.1
2014-Jul-24 09:12 351 25.6
2014-Jul-24 08:57 348 25.6
2014-Jul-24 08:41 350 25.0
2014-Jul-24 08:26 328 24.4
2014-Jul-24 08:11 348 0 gusting 6 24.4
2014-Jul-24 07:56 325 23.9
2014-Jul-24 07:41 325 1 gusting 3 23.3
2014-Jul-24 07:26 200 22.8
2014-Jul-24 07:11 153 22.8
2014-Jul-24 06:56 153 22.2
2014-Jul-24 06:41 153 21.1
2014-Jul-24 06:26 153 20.6
2014-Jul-24 06:11 153 20.6
2014-Jul-24 05:56 153 20.0
2014-Jul-24 04:25 225 20.6
2014-Jul-24 04:10 225 20.6
2014-Jul-24 03:55 225 20.6
2014-Jul-24 03:40 225 20.6
2014-Jul-24 03:25 225 20.6
2014-Jul-24 03:10 225 20.6
2014-Jul-24 02:55 225 21.1
2014-Jul-24 02:40 225 21.1
2014-Jul-24 02:25 225 21.7
2014-Jul-24 02:10 225 21.7
2014-Jul-24 01:55 225 21.7
2014-Jul-24 01:40 225 22.2
2014-Jul-24 01:26 225 22.8
2014-Jul-24 01:10 228 23.3
2014-Jul-24 00:55 228 23.3
2014-Jul-24 00:40 228 22.8
2014-Jul-24 00:25 228 22.8
2014-Jul-24 00:10 228 22.8
2014-Jul-23 23:55 257 23.3
2014-Jul-23 23:40 296 23.3
2014-Jul-23 23:25 296 23.3
2014-Jul-23 23:10 297 24.4
2014-Jul-23 22:55 300 25.0
2014-Jul-23 22:40 300 26.1
2014-Jul-23 22:25 202 26.1
2014-Jul-23 22:10 202 26.1
2014-Jul-23 21:55 205 26.7
2014-Jul-23 21:40 201 27.2
2014-Jul-23 21:25 192 2 gusting 6 27.2
2014-Jul-23 21:10 196 2 gusting 6 27.8
2014-Jul-23 20:55 198 2 gusting 6 27.8
2014-Jul-23 20:40 198 3 gusting 6 28.3
2014-Jul-23 20:25 177 2 gusting 5 28.3
2014-Jul-23 20:10 178 2 gusting 5 28.9
2014-Jul-23 19:55 190 1 gusting 5 28.9
2014-Jul-23 19:40 190 2 gusting 6 28.9
2014-Jul-23 19:25 211 3 gusting 6 30.0
2014-Jul-23 18:55 218 31.7
2014-Jul-23 18:40 216 2 gusting 6 31.7
2014-Jul-23 18:24 212 6 gusting 8 32.2
2014-Jul-23 18:09 226 6 gusting 10 32.8
2014-Jul-23 17:54 311 6 gusting 12 33.9
2014-Jul-23 17:39 330 6 gusting 10 33.9
2014-Jul-23 17:24 331 6 gusting 11 33.9
2014-Jul-23 17:10 360 5 gusting 12 33.9
2014-Jul-23 16:54 301 6 gusting 11 33.9
2014-Jul-23 16:39 311 6 gusting 12 33.9
2014-Jul-23 16:24 317 6 gusting 12 33.9
2014-Jul-23 16:09 343 5 gusting 14 33.9
2014-Jul-23 15:53 342 6 gusting 9 33.9
2014-Jul-23 15:38 329 5 gusting 8 33.9
2014-Jul-23 15:23 319 6 gusting 14 33.9
2014-Jul-23 15:08 286 4 gusting 13 33.9
2014-Jul-23 14:53 290 6 gusting 13 33.3
2014-Jul-23 14:38 239 6 gusting 12 33.3
2014-Jul-23 14:23 270 3 gusting 11 33.3
2014-Jul-23 14:08 306 33.3
2014-Jul-23 13:53 287 4 gusting 12 33.3
2014-Jul-23 13:38 329 1 gusting 8 33.3
2014-Jul-23 13:23 322 32.8
2014-Jul-23 13:08 325 5 gusting 10 32.2